Historical Weather Data

Soule Park Golf Course
1033 East Ojai Ave
Ojai, CA 93023
Date ET
(Inches)
Rain
(Inches)
Temp °F
Humidity
Avg
Wind MPH
Avg
Solar Wm2
Avg
High Ave Low
1/1/18 0.05 0.00 77.2 53.6 37.5 65 1.3 71
1/2/18 0.05 0.00 78.5 57.3 45.6 57 1.4 66
1/3/18 0.05 0.00 76.5 57.6 45.3 47 1.4 56
1/4/18 0.06 0.00 77.0 62.1 53.8 56 1.6 78
1/5/18 0.05 0.00 73.6 59.1 46.1 78 1.8 78
1/6/18 0.05 0.00 72.4 60.0 51.6 78 1.6 74
1/7/18 0.06 0.00 75.3 59.4 46.6 71 1.6 80
1/8/18 0.01 0.55 61.9 58.0 55.5 88 2.1 12
1/9/18 0.02 2.22 59.6 51.9 45.0 93 2.0 37
1/10/18 0.04 0.00 66.7 51.4 40.5 86 1.1 95
1/11/18 0.05 0.00 73.6 53.7 40.0 81 1.6 101
1/12/18 0.06 0.00 80.9 57.4 41.8 71 1.6 107
1/13/18 0.09 0.00 84.5 60.9 44.4 52 2.6 105
1/14/18 0.07 0.00 83.9 60.2 46.3 53 1.8 108
1/15/18 0.06 0.00 75.7 57.3 43.2 63 1.8 98
1/16/18 0.05 0.00 73.1 56.6 45.3 73 1.5 85
1/17/18 0.07 0.00 79.4 58.9 44.6 64 1.4 105
1/18/18 0.07 0.00 79.1 59.6 46.4 63 1.7 109
1/19/18 0.04 0.00 61.1 51.8 43.7 74 2.1 77
1/20/18 0.09 0.00 62.1 49.7 36.8 42 3.4 128
1/21/18 0.06 0.00 63.9 46.3 31.9 52 2.1 117
1/22/18 0.07 0.00 69.4 49.2 32.9 52 2.1 132
1/23/18 0.08 0.00 75.3 53.2 37.1 53 2.0 135
1/24/18 0.08 0.00 75.4 52.8 36.6 50 2.1 130
1/25/18 0.08 0.00 64.8 49.0 35.2 63 2.8 130
1/26/18 0.08 0.00 68.0 49.1 34.2 51 2.0 147
1/27/18 0.07 0.00 75.4 52.5 35.3 50 1.7 135
1/28/18 0.12 0.00 85.7 66.9 46.8 26 3.1 142
1/29/18 0.10 0.00 87.6 64.9 49.8 32 2.2 121
1/30/18 0.07 0.00 80.0 60.6 47.4 43 1.2 94
1/31/18 0.11 0.00 82.9 59.3 41.1 46 1.9 164
2/1/18 0.10 0.00 82.5 60.4 41.2 44 1.7 162
2/2/18 0.10 0.00 86.5 61.8 45.6 44 1.5 160
2/3/18 0.11 0.00 85.4 62.1 43.7 46 2.0 170
2/4/18 0.12 0.00 86.0 63.5 46.7 45 2.0 171
2/5/18 0.11 0.00 82.6 60.0 45.2 56 2.2 175
2/6/18 0.09 0.00 76.8 55.9 40.0 71 2.1 173
2/7/18 0.12 0.00 83.0 60.7 42.5 46 2.0 183
2/8/18 0.13 0.00 86.7 62.4 42.8 40 2.0 191
2/9/18 0.12 0.00 80.9 60.1 44.1 51 2.0 194
2/10/18 0.04 0.00 60.9 51.6 44.3 88 1.7 72
2/11/18 0.12 0.00 74.4 53.8 37.7 63 2.5 201
2/12/18 0.10 0.00 62.2 50.1 37.5 71 2.4 198
2/13/18 0.09 0.00 64.7 51.7 40.9 67 2.9 172
2/14/18 0.09 0.07 67.6 54.3 44.7 76 1.9 169
2/15/18 0.12 0.01 72.6 53.9 38.6 55 2.1 211
2/16/18 0.13 0.00 73.2 53.3 33.8 42 2.1 222
2/17/18 0.14 0.00 74.9 54.8 37.5 44 2.1 224
2/18/18 0.11 0.00 67.4 51.1 35.5 65 2.1 216
2/19/18 0.12 0.00 57.8 47.2 34.7 39 3.3 215
2/20/18 0.12 0.00 58.3 44.0 29.1 39 2.8 236
2/21/18 0.12 0.00 59.2 45.0 30.0 51 2.5 233
2/22/18 0.11 0.00 60.0 44.6 29.3 62 2.6 227
2/23/18 0.13 0.00 58.9 45.4 31.7 43 3.2 240
2/24/18 0.12 0.00 60.7 44.2 27.5 46 2.3 236
2/25/18 0.14 0.00 67.8 48.6 31.4 46 2.6 233
2/26/18 0.12 0.01 64.6 48.5 32.8 61 3.0 229
2/27/18 0.10 0.00 57.0 43.0 31.0 68 2.2 214
2/28/18 0.12 0.00 60.9 44.9 27.3 66 2.2 240
3/1/18 0.09 0.26 61.3 48.6 35.1 74 2.0 184
3/2/18 0.05 1.19 59.8 52.6 46.7 88 1.8 97
3/3/18 0.08 0.08 57.8 48.9 37.5 83 2.8 179
3/4/18 0.12 0.00 61.1 46.2 32.5 69 2.3 243
3/5/18 0.15 0.00 72.1 51.9 33.6 51 2.3 253
3/6/18 0.17 0.00 76.6 55.5 36.3 42 2.6 256
3/7/18 0.08 0.00 71.9 54.4 40.2 52 1.5 107
3/8/18 0.15 0.00 78.8 57.0 39.0 56 1.9 238
3/9/18 0.12 0.00 72.4 58.0 44.1 70 2.4 213
3/10/18 0.03 1.10 60.5 54.8 52.3 93 0.9 45
3/11/18 0.05 0.01 66.2 57.9 53.0 92 0.8 80
3/12/18 0.10 0.01 70.9 59.4 50.2 87 2.1 167
3/13/18 0.03 0.45 62.1 57.4 54.0 95 0.9 59
3/14/18 0.12 0.29 62.5 54.5 47.6 82 2.7 222
3/15/18 0.14 0.15 63.2 52.6 43.2 75 2.1 263
3/16/18 0.05 0.09 56.2 48.3 38.9 88 1.3 99
3/17/18 0.10 0.01 59.2 48.1 37.7 81 2.6 210
3/18/18 0.12 0.00 61.7 48.5 33.8 72 2.3 234
3/19/18 0.15 0.00 71.3 54.1 36.8 58 2.3 248
3/20/18 0.06 0.11 68.2 55.5 45.1 70 1.2 93
3/21/18 0.02 1.66 57.6 54.2 51.6 97 0.7 33
3/22/18 0.02 2.13 57.8 55.9 52.8 97 0.8 35
3/23/18 0.13 0.00 67.2 56.2 46.3 84 1.7 238
3/24/18 0.10 0.00 62.1 51.2 40.5 81 2.1 197
3/25/18 0.15 0.00 65.4 51.0 36.6 59 2.3 281
3/26/18 0.17 0.00 67.3 55.6 42.2 39 3.4 283
3/27/18 0.18 0.00 71.9 56.9 38.7 43 2.8 290
3/28/18 0.19 0.00 79.9 60.9 42.7 53 2.5 287
3/29/18 0.18 0.00 80.0 61.0 43.1 63 2.2 285
3/30/18 0.18 0.00 82.7 63.2 45.3 65 1.9 278
3/31/18 0.17 0.00 80.1 61.1 47.5 71 2.1 268
4/1/18 0.09 0.00 69.9 56.2 49.3 86 1.8 177
4/2/18 0.05 0.00 59.6 54.3 49.2 87 1.8 94
4/3/18 0.14 0.00 70.3 55.7 43.6 83 2.3 263
4/4/18 0.14 0.00 72.4 56.2 46.1 85 2.4 254
4/5/18 0.14 0.00 71.5 58.3 48.6 81 2.1 253
4/6/18 0.16 0.00 74.6 61.7 48.7 73 2.5 256
4/7/18 0.14 0.00 80.6 63.5 53.4 77 2.0 229
4/8/18 0.20 0.00 81.0 64.7 47.5 51 2.5 302
4/9/18 0.24 0.00 93.3 70.0 47.8 36 3.2 305
4/10/18 0.22 0.00 90.9 69.6 50.8 43 2.6 297
4/11/18 0.19 0.00 79.7 62.8 48.1 63 2.4 303
4/12/18 0.20 0.00 69.4 57.0 44.0 45 3.5 315
4/13/18 0.20 0.00 78.8 59.6 38.8 39 2.6 312
4/14/18 0.23 0.00 83.0 64.0 44.0 36 3.0 319
4/15/18 0.15 0.00 76.7 60.7 45.5 48 2.3 223
4/16/18 0.17 0.00 63.0 52.4 42.2 66 5.2 316
4/17/18 0.20 0.00 71.2 54.3 36.6 50 3.0 326
4/18/18 0.20 0.00 73.8 56.0 38.5 52 2.8 315
4/19/18 0.18 0.01 68.5 56.4 42.2 57 3.4 321
4/20/18 0.20 0.00 76.6 59.9 42.2 56 2.7 327
4/21/18 0.21 0.00 89.3 66.7 43.4 48 2.2 308
4/22/18 0.23 0.00 84.9 67.8 49.7 49 2.5 328
4/23/18 0.21 0.00 82.3 63.3 48.1 68 2.3 327
4/24/18 0.18 0.00 79.4 60.3 47.7 73 2.2 296
4/25/18 0.20 0.00 79.9 59.7 45.6 68 2.1 324
4/26/18 0.19 0.00 74.2 57.6 43.6 75 2.4 331
4/27/18 0.15 0.00 71.3 56.6 45.8 79 2.2 276
4/28/18 0.20 0.00 76.6 60.1 43.8 68 2.6 334
4/29/18 0.17 0.00 70.2 57.7 44.6 73 2.7 301
4/30/18 0.08 0.00 64.9 55.3 44.9 77 1.9 131
5/1/18 0.04 0.05 58.5 52.6 48.7 86 1.1 63
5/2/18 0.06 0.00 59.4 54.6 50.2 82 1.3 77
5/3/18 0.21 0.00 78.4 62.2 47.1 67 2.0 343
5/4/18 0.24 0.00 88.8 68.4 46.7 53 2.5 330
5/5/18 0.22 0.00 90.8 70.3 51.4 48 2.2 290
5/6/18 0.16 0.00 86.1 64.4 46.8 56 1.8 231
5/7/18 0.23 0.00 81.8 64.9 44.9 58 2.2 347
5/8/18 0.21 0.00 85.4 65.2 46.8 63 2.4 309
5/9/18 0.22 0.00 82.1 65.0 48.7 71 2.3 336
5/10/18 0.21 0.00 79.4 64.8 49.7 69 2.2 332
5/11/18 0.05 0.01 63.8 56.1 48.1 88 1.4 85
5/12/18 0.06 0.03 63.8 57.5 54.5 84 1.1 78
5/13/18 0.11 0.00 70.2 57.3 48.8 79 2.0 183
5/14/18 0.19 0.00 70.8 58.6 45.3 76 2.7 331
5/15/18 0.20 0.00 71.9 58.8 45.8 73 2.6 351
5/16/18 0.21 0.00 75.5 59.8 43.4 66 2.6 348
5/17/18 0.21 0.00 72.2 59.9 44.7 68 2.6 346
5/18/18 0.19 0.00 70.9 59.0 45.7 75 2.7 330
5/19/18 0.19 0.00 71.0 59.4 47.7 77 2.7 335
5/20/18 0.07 0.00 65.8 59.1 49.8 78 1.9 98
5/21/18 0.05 0.00 62.5 58.9 55.0 78 1.3 61
5/22/18 0.12 0.00 70.1 59.8 50.9 75 2.3 184
5/23/18 0.13 0.00 72.2 59.0 48.4 77 2.0 217
5/24/18 0.04 0.00 63.0 57.6 51.6 83 1.6 63
5/25/18 0.18 0.00 68.8 59.2 49.5 72 2.8 299
5/26/18 0.20 0.00 74.6 59.8 45.5 71 2.6 335
5/27/18 0.21 0.00 76.2 61.5 46.5 71 2.7 347
5/28/18 0.22 0.00 83.3 64.2 48.3 71 2.7 347
5/29/18 0.19 0.00 81.0 63.5 54.0 79 2.7 309
5/30/18 0.04 0.00 63.8 59.4 56.5 90 1.8 62
5/31/18 0.15 0.00 72.9 61.9 51.6 75 2.5 228
6/1/18 0.22 0.00 78.2 63.4 45.8 66 2.4 350
6/2/18 0.24 0.00 85.2 68.8 49.7 58 2.6 351
6/3/18 0.25 0.00 90.8 71.1 51.0 60 2.5 357
6/4/18 0.24 0.00 88.2 68.1 53.5 69 2.7 349
6/5/18 0.16 0.00 76.1 62.2 52.9 82 2.5 261
6/6/18 0.15 0.00 73.9 61.4 52.4 80 2.3 250
6/7/18 0.21 0.00 77.7 63.6 48.6 71 2.6 339
6/8/18 0.24 0.00 88.5 70.0 49.6 58 2.3 349
6/9/18 0.24 0.00 86.2 69.1 50.9 60 2.4 347
6/10/18 0.24 0.00 85.8 69.7 50.6 51 2.4 353
6/11/18 0.26 0.00 91.0 72.1 51.2 46 2.4 352
6/12/18 0.25 0.00 90.9 72.8 53.3 55 2.1 352
6/13/18 0.25 0.00 92.1 72.8 53.8 57 2.2 353
6/14/18 0.24 0.00 92.5 71.0 54.1 60 2.3 345
6/15/18 0.22 0.00 85.2 68.3 53.0 63 2.3 322
6/16/18 0.07 0.00 70.2 61.1 51.8 80 2.1 102
6/17/18 0.06 0.01 64.1 59.7 56.3 79 1.7 78
6/18/18 0.22 0.00 75.9 64.1 51.7 68 2.4 348
6/19/18 0.23 0.00 84.1 66.4 48.1 69 2.5 349
6/20/18 0.24 0.00 89.0 68.4 50.1 69 2.6 347
6/21/18 0.23 0.00 86.3 67.5 53.6 73 2.4 344
6/22/18 0.22 0.00 86.3 67.5 54.3 74 2.3 327
6/23/18 0.19 0.00 78.8 64.9 53.6 80 2.7 314
6/24/18 0.20 0.00 79.1 67.0 55.5 73 2.7 312
6/25/18 0.21 0.00 85.3 68.0 54.5 68 2.3 320
6/26/18 0.22 0.00 86.2 68.6 52.1 67 2.3 327
6/27/18 0.23 0.00 86.8 69.0 54.1 67 2.6 343
6/28/18 0.21 0.00 82.4 66.4 53.1 72 2.6 318
6/29/18 0.17 0.00 76.0 64.0 51.7 75 2.5 271
6/30/18 0.21 0.00 79.9 67.0 54.1 73 2.6 317
7/1/18 0.22 0.00 85.0 69.4 57.1 70 2.6 316
7/2/18 0.21 0.00 82.8 68.4 57.6 72 2.5 314
7/3/18 0.20 0.00 77.7 66.2 55.8 75 2.8 309
7/4/18 0.22 0.00 83.2 68.3 54.6 70 2.4 339
7/5/18 0.24 0.00 98.8 74.7 53.4 55 2.5 320
7/6/18 0.31 0.00 112.4 92.2 64.6 21 3.2 331
7/7/18 0.28 0.00 111.7 90.6 70.9 26 2.5 311
7/8/18 0.27 0.00 99.9 83.8 67.0 39 2.5 316
7/9/18 0.23 0.00 100.3 82.0 63.5 41 2.2 273
7/10/18 0.25 0.00 95.2 79.8 65.9 49 2.7 303
7/11/18 0.24 0.00 96.3 79.2 63.5 51 2.5 309
7/12/18 0.23 0.00 93.1 78.2 66.5 56 2.7 286
7/13/18 0.25 0.00 95.5 78.3 61.9 57 2.6 327
7/14/18 0.25 0.00 95.4 77.7 62.3 60 2.4 327
7/15/18 0.25 0.00 92.7 77.2 61.7 60 2.5 328
7/16/18 0.23 0.00 92.8 75.3 62.2 63 2.5 317
7/17/18 0.23 0.00 89.7 74.1 60.1 66 2.5 322
7/18/18 0.17 0.00 91.1 73.5 61.3 69 2.4 232
7/19/18 0.24 0.00 91.7 76.1 62.6 65 2.5 316
7/20/18 0.23 0.00 90.7 75.8 63.5 67 2.9 317
7/21/18 0.23 0.00 90.9 74.8 64.3 66 2.7 308
7/22/18 0.25 0.00 94.1 77.5 60.5 59 2.5 326